User: anonymous   Login
Location: Newark
(33.6333°S, 78.8500°W)
Time: 09:44:38
(UTC+00:00)
Language:

Tiros 1 despin weight - Orbit

View from above orbital plane
View from above orbital plane
View from above satellite
View from above satellite

Ground track
Ground track

The orbit data is extracted from the following two-line orbital elements,

1   115U 60002D   19257.17336456 -.00000012  00000-0  25745-4 0  9995
2   115  48.1661 167.4561 0033764 106.7425 253.7197 14.83474122171800
Epoch (UTC): 14 September 2019 04:09:38
Eccentricity: 0.0033764
inclination: 48.1661°
perigee height: 595 km
apogee height: 642 km
right ascension of ascending node: 167.4561°
argument of perigee: 106.7425°
revolutions per day: 14.83474122
mean anomaly at epoch: 253.7197°
orbit number at epoch: 17180

The dashed part of the orbit path shows where the satellite is in the earth's shadow,  

DLR